EDT,Max TemperatureF,Mean TemperatureF,Min TemperatureF,Max Dew PointF,MeanDew PointF,Min DewpointF,Max Humidity, Mean Humidity, Min Humidity, Max Sea Level PressureIn, Mean Sea Level PressureIn, Min Sea Level PressureIn, Max VisibilityMiles, Mean VisibilityMiles, Min VisibilityMiles, Max Wind SpeedMPH, Mean Wind SpeedMPH, Max Gust SpeedMPH,PrecipitationIn, CloudCover, Events, WindDirDegrees
2013-5-1,64,52,40,46,39,30,82,63,43,30.47,30.42,30.33,10,10,10,17,7,24,0.00,1,,90
2013-5-2,65,53,40,46,41,37,93,68,43,30.45,30.40,30.33,10,10,10,13,5,17,0.00,1,,159
2013-5-3,64,55,45,43,39,35,82,59,36,30.45,30.40,30.36,10,10,10,17,9,25,0.00,3,,83
2013-5-4,64,53,42,44,40,36,92,66,39,30.35,30.29,30.26,10,10,10,20,9,24,0.00,0,,86
2013-5-5,60,50,39,42,39,36,86,69,51,30.29,30.26,30.23,10,10,10,20,8,24,0.00,3,,75
2013-5-6,65,55,45,47,44,41,89,73,56,30.26,30.21,30.16,10,10,10,14,6,17,0.00,5,,98
2013-5-7,71,58,45,56,51,42,93,77,61,30.17,30.14,30.10,10,7,0,15,6,18,T,6,Fog,101
2013-5-8,66,60,53,61,56,52,93,89,84,30.11,30.04,30.00,10,6,0,26,9,33,0.27,7,Fog-Rain-Thunderstorm,112
2013-5-9,66,59,52,59,54,51,100,86,72,30.01,29.93,29.87,10,8,1,18,4,23,0.04,7,Rain,151
2013-5-10,77,64,50,56,52,48,96,66,36,29.98,29.95,29.91,10,9,4,14,6,17,0.00,4,,204
2013-5-11,66,62,58,60,57,52,97,88,78,29.89,29.80,29.70,10,6,0,21,10,31,0.30,8,Fog-Rain,197
2013-5-12,72,62,51,59,49,24,100,61,22,29.90,29.69,29.64,10,5,0,25,11,32,0.02,5,Fog-Rain,251
2013-5-13,58,50,42,31,27,22,62,45,27,30.07,29.99,29.92,10,10,10,21,11,26,0.00,4,,285
2013-5-14,60,50,40,39,31,22,76,50,23,30.09,30.06,30.03,10,10,0,16,8,26,0.00,2,,287
2013-5-15,62,52,41,53,46,37,89,70,51,30.06,29.90,29.70,10,10,10,22,8,32,T,5,Rain,191
2013-5-16,75,63,51,56,49,42,93,62,31,29.80,29.75,29.69,10,9,4,20,7,23,T,3,,223
2013-5-17,72,61,49,50,41,35,83,57,30,30.19,30.03,29.82,10,10,10,20,8,25,0.00,4,,333
2013-5-18,69,59,49,53,48,43,89,67,45,30.31,30.28,30.19,10,10,10,16,7,22,0.06,6,Rain,177
2013-5-19,58,57,55,57,53,47,93,80,67,30.33,30.27,30.18,10,6,1,20,9,25,0.34,8,Rain,144
2013-5-20,75,66,57,63,60,55,100,84,68,30.18,30.06,29.97,10,5,0,12,7,,0.00,7,Fog-Rain,219
2013-5-21,78,69,60,67,62,57,97,82,67,29.97,29.93,29.86,10,5,0,18,8,23,0.00,3,Fog,213
2013-5-22,74,66,57,64,60,55,97,85,73,29.94,29.90,29.86,10,4,0,20,8,25,0.22,7,Rain,157
2013-5-23,71,67,63,64,62,61,100,89,78,29.93,29.88,29.78,9,5,0,25,15,33,0.39,8,Fog-Rain-Thunderstorm,200
2013-5-24,70,59,47,63,55,42,100,86,71,29.87,29.75,29.68,10,8,2,26,12,33,0.19,8,Rain,285
2013-5-25,51,48,45,44,42,38,92,79,66,29.93,29.85,29.82,10,7,2,30,17,40,0.77,8,Rain,318
2013-5-26,66,56,45,39,37,35,76,55,34,30.18,30.00,29.90,10,10,10,28,14,37,0.00,5,,297
2013-5-27,71,57,43,49,39,31,83,53,23,30.22,30.17,30.13,10,10,10,22,9,26,0.00,1,,235
2013-5-28,70,59,48,56,51,43,93,66,39,30.22,30.18,30.14,10,6,1,16,5,21,0.45,6,Rain,157
2013-5-29,74,66,58,64,59,55,93,83,73,30.13,30.07,30.01,10,8,4,13,7,16,T,7,Rain,192
2013-5-30,88,75,62,67,63,59,93,71,48,30.11,30.08,30.06,10,9,5,15,7,20,0.00,1,,223
2013-5-31,89,76,63,69,63,60,87,68,48,30.11,30.06,30.00,10,10,9,20,7,24,0.00,1,,221